Regional Weather Roundup
Issued by NWS Goodland, KS

Home | Current Version | Previous Version | Graphics & Text | Print | Product List | Glossary On
Versions: 1 2 3 4 5 6 7 8 9 10 11 12 13 14 15 16 17 18 19 20 21 22 23 24 25 26 27 28 29 30 31 32 33 34 35 36 37 38 39 40 41 42 43 44 45 46 47 48 49 50
083
ASUS43 KGLD 251408
RWRGLD

GOODLAND FORECAST AREA HOURLY WEATHER ROUNDUP
NATIONAL WEATHER SERVICE GOODLAND KS
800 AM MDT THU MAY 25 2017

...OFFICIAL OBSERVATIONS...

CITY           SKY/WX    TMP DP  RH WIND       PRES   REMARKS
GOODLAND KS    MOSUNNY   60  50  69 SW9       29.55R
HILL CITY KS   MOSUNNY   60  47  61 S17G29    29.53F
IMPERIAL NEB   CLOUDY    61  48  62 NW16G28   29.50S
MCCOOK NEB     MOSUNNY   58  48  69 S9        29.51R
AKRON CO       SUNNY     65  45  48 NW12      29.58R
BURLINGTON CO  MOSUNNY   64  48  56 S9        29.58R
LIMON CO       CLOUDY    63  45  51 VRB6      29.62S
$$

...UNOFFICIAL OBSERVATIONS...

CITY           SKY/WX    TMP DP  RH WIND       PRES   REMARKS
NORTON KS      SUNNY     57  45  62 S13       29.54R
SHARON SPRINGS   N/A     57  51  82 W8          N/A
TRENTON NEB      N/A     59  32  36 CALM        N/A
KIT CARSON CO    N/A     60  51  72 CALM        N/A
YUMA CO        FAIR      64  37  36 N13       29.53F
$$




USA.gov is the U.S. government's official web portal to all federal, state and local government web resources and services.